COSMOS 397 DEB

基本信息
目录编号:
5013
目录名称:
COSMOS 397 DEB
国际标识:
1971-015G
轨道中心:
EARTH
物体状态:
在轨
发射日期:
1971-02-25 UTC
轨道信息
数据来源: 国际轨道数据
星历时间: 2026-09-04T14:40:15+0800
半长轴: 7568.811km
偏心率: 0.0834594
轨道倾角: 65.809°
近地点辐角: 62.133°
升交点赤经: 242.666°
平近点角: 306.170°
近地点: 558.985km
远地点: 1822.363km
周期: 109.220分钟
每日圈数: 13.184428
详细信息
发射场:
TTMTR
轨道高度:
LEO
数据来源:
AOE Integration Group
参考系:
TEME
时间系统:
UTC
历元类型:
SGP4
2D轨道图
3D轨道图
轨道高度分析图
轨道倾角分析图
轨道综合分析图
查看轨道综合分析图